Location: Qazi Observatory
(41.6337°N, 88.1517°W)
Time: 08:19:38
(UTC-05:00)

Amateur Radio Satellites - All Passes

Search period start: 20 April 2014 07:49
Search period end: 21 April 2014 07:49
Location: Qazi Observatory, 41.6337°N, 88.1517°W

Satellite Date Start Highest point End Downlink Frequencies (MHz)
Time Altitude Azimuth
Sapphire 20 Apr 08:10:23 08:13:42 16° 41° (NE) 08:17:01 437.095 MHz 1200 baud AX-25 AFSK
SO-67 20 Apr 08:14:35 08:18:06 89° 108° (ESE) 08:21:36 435.3500 MHz FM
JAS-2 20 Apr 08:18:28 08:23:52 82° 285° (WNW) 08:29:51 435.800 - 435.900 CW/SSB, 435.910 FM
PCSat 20 Apr 08:54:20 08:59:13 33° 51° (NE) 09:04:04 145.825 MHz
RS-15 20 Apr 08:55:46 09:06:18 44° 318° (NW) 09:16:39 29.354 - 29.394 USB, Beacon 29.352 USB
KITSAT 1 20 Apr 09:15:48 09:20:30 16° 24° (NNE) 09:25:11 435.175 FM
HO-68 20 Apr 09:21:33 09:27:57 34° 97° (E) 09:34:19 435.675 MHz FM
Sapphire 20 Apr 09:52:31 09:57:58 85° 61° (ENE) 10:03:23 437.095 MHz 1200 baud AX-25 AFSK
JAS-2 20 Apr 10:06:42 10:08:16 11° 302° (WNW) 10:09:53 435.800 - 435.900 CW/SSB, 435.910 FM
Saudisat 1A 20 Apr 10:07:22 10:10:34 20° 111° (ESE) 10:13:46 436.775 MHz
FUNcube-1 20 Apr 10:27:04 10:29:44 16° 92° (E) 10:32:25 145.950 - 145.970 MHz USB
PANSAT 20 Apr 10:31:48 10:33:07 11° 183° (S) 10:34:26 not established
Oscar 11 20 Apr 10:33:17 10:37:36 60° 101° (E) 10:41:54 145.825 FM, Beacon 2401.500 USB
PCSat 20 Apr 10:37:41 10:42:40 38° 249° (WSW) 10:47:37 145.825 MHz
HO-68 20 Apr 11:08:59 11:15:47 48° 294° (WNW) 11:22:35 435.675 MHz FM
KITSAT 1 20 Apr 11:10:28 11:18:15 47° 50° (NE) 11:25:58 435.175 FM
RS-15 20 Apr 11:14:41 11:22:34 21° 351° (N) 11:30:26 29.354 - 29.394 USB, Beacon 29.352 USB
Sapphire 20 Apr 11:38:21 11:40:36 13° 258° (WSW) 11:42:51 437.095 MHz 1200 baud AX-25 AFSK
Saudisat 1A 20 Apr 11:45:32 11:49:50 47° 308° (NW) 11:54:10 436.775 MHz
FUNcube-1 20 Apr 12:02:18 12:06:21 44° 288° (WNW) 12:10:29 145.950 - 145.970 MHz USB
Oscar 11 20 Apr 12:11:08 12:13:18 14° 297° (WNW) 12:15:28 145.825 FM, Beacon 2401.500 USB
AO-27 20 Apr 12:32:30 12:34:20 12° 58° (ENE) 12:36:10 436.795 MHz FM
AO-Echo 20 Apr 12:40:44 12:41:46 11° 58° (ENE) 12:42:47 ?
ITAMSAT 1 20 Apr 12:41:58 12:44:39 14° 60° (ENE) 12:47:21 435.822 SSB
Oscar 19 20 Apr 12:42:43 12:46:55 26° 65° (ENE) 12:51:09 437.125 CW, 437.150 USB
Oscar 16 20 Apr 12:50:46 12:55:18 33° 67° (ENE) 12:59:52 437.025 USB, Beacon 2401.1428
KITSAT 1 20 Apr 13:06:05 13:13:35 43° 250° (WSW) 13:21:02 435.175 FM
Uribyol 2 20 Apr 13:27:38 13:32:22 38° 69° (ENE) 13:37:07 436.500 FM
RS-15 20 Apr 13:30:57 13:40:01 28° 27° (NNE) 13:49:08 29.354 - 29.394 USB, Beacon 29.352 USB
Oscar 10/S400 20 Apr 13:41:44 15:02:07 23° 266° (W) 17:40:58 145.825 - 145.975 CW/USB, Beacon 145.810 USB
ISS 20 Apr 14:00:13 14:01:47 13° 130° (SE) 14:03:22 145.800 FM
Gurwin Techsat 1B 20 Apr 14:07:05 14:11:30 28° 66° (ENE) 14:15:56 435.225 FM
AO-27 20 Apr 14:07:51 14:13:03 86° 75° (ENE) 14:18:16 436.795 MHz FM
AO-Echo 20 Apr 14:14:29 14:19:43 79° 75° (ENE) 14:24:51 ?
ITAMSAT 1 20 Apr 14:18:18 14:23:29 78° 257° (WSW) 14:28:42 435.822 SSB
Oscar 19 20 Apr 14:21:16 14:26:03 39° 262° (W) 14:30:54 437.125 CW, 437.150 USB
Oscar 16 20 Apr 14:30:08 14:34:37 31° 264° (W) 14:39:10 437.025 USB, Beacon 2401.1428
Uosat F 20 Apr 14:37:05 14:39:33 14° 60° (ENE) 14:42:01 435.120 FM
SO-50 20 Apr 14:37:34 14:40:59 22° 112° (ESE) 14:44:25 436.795 FM
JAS-1B 20 Apr 14:39:44 14:46:06 29° 65° (ENE) 14:51:41 435.800 - 435.900 CW/SSB
AO-7 20 Apr 14:53:33 15:00:09 28° 55° (NE) 15:06:45 29.400 - 29.500 MHz
TMSAT-1 20 Apr 14:53:45 14:58:51 51° 71° (ENE) 15:03:58 436.925 FM
Uribyol 2 20 Apr 15:07:39 15:11:55 26° 265° (W) 15:16:14 436.500 FM
OPAL 20 Apr 15:29:09 15:34:16 53° 102° (ESE) 15:39:21 ?
ISS 20 Apr 15:34:46 15:38:06 76° 326° (NW) 15:41:28 145.800 FM
RS-15 20 Apr 15:43:31 15:54:31 76° 55° (NE) 16:05:46 29.354 - 29.394 USB, Beacon 29.352 USB
Gurwin Techsat 1B 20 Apr 15:46:21 15:51:17 39° 262° (W) 15:56:15 435.225 FM
AO-27 20 Apr 15:51:52 15:53:13 11° 272° (W) 15:54:34 436.795 MHz FM
AO-Echo 20 Apr 15:56:50 15:59:00 13° 271° (W) 16:01:09 ?
Uosat F 20 Apr 16:12:40 16:17:41 78° 257° (WSW) 16:22:44 435.120 FM
SO-50 20 Apr 16:17:01 16:21:16 42° 309° (NW) 16:25:35 436.795 FM
JAS-1B 20 Apr 16:28:31 16:36:29 57° 258° (WSW) 16:43:10 435.800 - 435.900 CW/SSB
TMSAT-1 20 Apr 16:35:12 16:39:03 20° 268° (W) 16:42:55 436.925 FM
AO-7 20 Apr 16:43:58 16:52:13 73° 254° (WSW) 17:00:32 29.400 - 29.500 MHz
UOSAT-12 20 Apr 16:53:35 16:57:28 28° 113° (ESE) 17:01:26 437.025 FM, 437.400 FM
OPAL 20 Apr 17:08:54 17:12:45 21° 299° (WNW) 17:16:35 ?
ISS 20 Apr 17:12:45 17:15:17 20° 345° (NNW) 17:17:49 145.800 FM
RS-15 20 Apr 17:56:58 18:05:49 30° 256° (WSW) 18:14:55 29.354 - 29.394 USB, Beacon 29.352 USB
STRAND 1 20 Apr 18:12:15 18:13:17 11° 88° (E) 18:14:19 ?
Hamsat 20 Apr 18:12:46 18:16:57 73° 76° (ENE) 18:21:12 145.90 MHz
JAS-2 20 Apr 18:31:30 18:36:51 41° 70° (ENE) 18:41:49 435.800 - 435.900 CW/SSB, 435.910 FM
Saudisat 1A 20 Apr 18:33:16 18:36:35 20° 43° (NE) 18:39:51 436.775 MHz
UOSAT-12 20 Apr 18:33:19 18:37:31 35° 311° (NW) 18:41:48 437.025 FM, 437.400 FM
AO-7 20 Apr 18:43:01 18:46:22 13° 273° (W) 18:49:44 29.400 - 29.500 MHz
SO-67 20 Apr 18:48:44 18:51:48 29° 72° (ENE) 18:54:52 435.3500 MHz FM
ISS 20 Apr 18:50:54 18:52:58 15° 5° (N) 18:55:03 145.800 FM
STRAND 1 20 Apr 19:48:00 19:53:08 86° 285° (WNW) 19:58:13 ?
HO-68 20 Apr 19:51:05 19:56:50 28° 59° (ENE) 20:02:37 435.675 MHz FM
Saudisat 1A 20 Apr 20:12:12 20:16:30 54° 241° (WSW) 20:20:45 436.775 MHz
JAS-2 20 Apr 20:17:23 20:22:05 25° 264° (W) 20:26:30 435.800 - 435.900 CW/SSB, 435.910 FM
SO-67 20 Apr 20:22:52 20:25:01 16° 267° (W) 20:27:11 435.3500 MHz FM
ISS 20 Apr 20:27:25 20:30:29 32° 25° (NNE) 20:33:33 145.800 FM
MaSat-1 20 Apr 21:18:11 21:21:02 51° 114° (ESE) 21:23:35 437.345 MHz
FUNcube-1 20 Apr 21:25:03 21:27:11 14° 64° (ENE) 21:29:19 145.950 - 145.970 MHz USB
Oscar 11 20 Apr 21:28:32 21:32:40 47° 72° (ENE) 21:36:50 145.825 FM, Beacon 2401.500 USB
STRAND 1 20 Apr 21:29:52 21:31:31 12° 302° (WNW) 21:33:10 ?
HO-68 20 Apr 21:37:00 21:44:02 62° 257° (WSW) 21:51:08 435.675 MHz FM
ISS 20 Apr 22:04:07 22:07:16 37° 222° (SW) 22:10:23 145.800 FM
FUNcube-1 20 Apr 22:59:05 23:03:11 53° 260° (W) 23:07:16 145.950 - 145.970 MHz USB
Oscar 11 20 Apr 23:06:38 23:09:07 15° 269° (W) 23:11:38 145.825 FM, Beacon 2401.500 USB
SO-50 20 Apr 23:08:09 23:12:00 25° 45° (NE) 23:15:53 436.795 FM
PCSat 20 Apr 23:36:58 23:41:24 27° 108° (ESE) 23:45:52 145.825 MHz
Sapphire 21 Apr 00:34:16 00:39:40 77° 117° (ESE) 00:45:06 437.095 MHz 1200 baud AX-25 AFSK
SO-50 21 Apr 00:48:19 00:52:45 45° 243° (WSW) 00:57:14 436.795 FM
Oscar 16 21 Apr 01:04:47 01:05:59 11° 88° (E) 01:07:10 437.025 USB, Beacon 2401.1428
OPAL 21 Apr 01:08:55 01:11:16 13° 56° (ENE) 01:13:37 ?
PCSat 21 Apr 01:19:24 01:24:34 45° 306° (NW) 01:29:46 145.825 MHz
UOSAT-12 21 Apr 01:22:31 01:26:41 30° 47° (NE) 01:30:49 437.025 FM, 437.400 FM
KITSAT 1 21 Apr 01:40:04 01:46:43 29° 106° (ESE) 01:53:22 435.175 FM
Uribyol 2 21 Apr 01:41:53 01:44:11 13° 90° (E) 01:46:28 436.500 FM
Sapphire 21 Apr 02:19:54 02:23:43 19° 317° (NW) 02:27:33 437.095 MHz 1200 baud AX-25 AFSK
AO-27 21 Apr 02:21:09 02:25:42 30° 96° (E) 02:30:13 436.795 MHz FM
AO-Echo 21 Apr 02:22:34 02:26:20 23° 94° (E) 02:30:03 ?
ITAMSAT 1 21 Apr 02:31:16 02:36:03 37° 98° (E) 02:40:48 435.822 SSB
Oscar 19 21 Apr 02:32:11 02:37:24 73° 102° (ESE) 02:42:35 437.125 CW, 437.150 USB
Oscar 16 21 Apr 02:40:46 02:46:00 88° 285° (WNW) 02:51:12 437.025 USB, Beacon 2401.1428
OPAL 21 Apr 02:44:22 02:49:24 85° 254° (WSW) 02:54:33 ?
UOSAT-12 21 Apr 03:02:34 03:06:54 37° 245° (WSW) 03:11:11 437.025 FM, 437.400 FM
TMSAT-1 21 Apr 03:10:15 03:14:04 20° 92° (E) 03:17:52 436.925 FM
Uribyol 2 21 Apr 03:19:02 03:24:13 76° 286° (WNW) 03:29:23 436.500 FM
KITSAT 1 21 Apr 03:33:28 03:41:31 66° 305° (NW) 03:49:37 435.175 FM
AO-27 21 Apr 04:00:35 04:05:12 33° 293° (WNW) 04:09:47 436.795 MHz FM
AO-Echo 21 Apr 04:00:52 04:05:14 36° 291° (WNW) 04:09:31 ?
Gurwin Techsat 1B 21 Apr 04:01:52 04:07:13 83° 104° (ESE) 04:12:31 435.225 FM
ITAMSAT 1 21 Apr 04:11:03 04:15:23 28° 294° (WNW) 04:19:43 435.822 SSB
Oscar 19 21 Apr 04:13:10 04:16:08 16° 300° (WNW) 04:19:05 437.125 CW, 437.150 USB
JAS-1B 21 Apr 04:13:16 04:18:27 36° 98° (E) 04:23:52 435.800 - 435.900 CW/SSB
Uosat F 21 Apr 04:20:35 04:25:02 31° 97° (E) 04:29:27 435.120 FM
Oscar 16 21 Apr 04:22:35 04:24:33 12° 302° (WNW) 04:26:31 437.025 USB, Beacon 2401.1428
AO-7 21 Apr 04:45:30 04:53:10 39° 98° (E) 05:00:47 29.400 - 29.500 MHz
TMSAT-1 21 Apr 04:49:09 04:54:17 52° 289° (WNW) 04:59:24 436.925 FM
Uribyol 2 21 Apr 05:02:09 05:02:47 10° 303° (WNW) 05:03:25 436.500 FM
STRAND 1 21 Apr 05:27:13 05:30:37 18° 62° (ENE) 05:34:00 ?
KITSAT 1 21 Apr 05:32:56 05:38:38 20° 329° (NNW) 05:44:22 435.175 FM
MaSat-1 21 Apr 05:42:09 05:43:18 12° 56° (NE) 05:44:32 437.345 MHz
Gurwin Techsat 1B 21 Apr 05:43:50 05:46:27 14° 301° (WNW) 05:49:04 435.225 FM
Uosat F 21 Apr 05:59:25 06:03:45 30° 293° (WNW) 06:08:05 435.120 FM
Hamsat 21 Apr 06:00:06 06:02:17 14° 90° (E) 06:04:27 145.90 MHz
JAS-1B 21 Apr 06:04:15 06:09:06 30° 295° (WNW) 06:14:06 435.800 - 435.900 CW/SSB
RS-15 21 Apr 06:07:06 06:17:42 48° 110° (ESE) 06:27:57 29.354 - 29.394 USB, Beacon 29.352 USB
AO-7 21 Apr 06:38:11 06:46:03 49° 297° (WNW) 06:53:56 29.400 - 29.500 MHz
STRAND 1 21 Apr 07:04:18 07:09:20 59° 259° (W) 07:14:23 ?
MaSat-1 21 Apr 07:18:52 07:21:44 37° 247° (WSW) 07:25:06 437.345 MHz
JAS-2 21 Apr 07:23:45 07:28:46 35° 98° (E) 07:34:13 435.800 - 435.900 CW/SSB, 435.910 FM
Hamsat 21 Apr 07:34:20 07:38:35 54° 286° (WNW) 07:42:51 145.90 MHz
KITSAT 1 21 Apr 07:35:46 07:38:02 11° 360° (N) 07:40:17 435.175 FM
Sapphire 21 Apr 07:40:36 07:43:00 13° 37° (NE) 07:45:23 437.095 MHz 1200 baud AX-25 AFSK
